Location: Spring Creek
(38.2870°N, 100.2160°W)
Time: 12:54:06
(UTC+00:00)

CZ-4B R/B - Pass Details

Date: 08 May 2021
Orbit: 703 x 802 km, 98.9° (Epoch: 22 June)

Event Time Altitude Azimuth Distance (km) Brightness Sun altitude
Rises 10:35:03 0° 2° (N) 3,164 7.2 -11.4°
Reaches altitude 10° 10:37:32 10° 351° (N) 2,253 6.3 -11.0°
Maximum altitude 10:41:48 30° 292° (WNW) 1,330 4.5 -10.3°
Enters shadow 10:45:41 12° 235° (SW) 2,138 5.1 -9.7°
